Skip Page Navigation
NASA JPL Caltech
NASA Logo - Jet Propulsion Laboratory + View the NASA Portal
+ Center for Near-Earth Object Studies
JPL Home Earth Solar System Stars & Galaxies Technology
JPL Solar System Dynamics
BODIES ORBITS EPHEMERIDES TOOLS PHYSICAL DATA DISCOVERY FAQ SITE MAP
JPL Small-Body Database Browser
Search: [ help ]  
359024 (2008 UW370)
Classification: Main-belt Asteroid          SPK-ID: 2359024
Ephemeris | Orbit Diagram | Orbital Elements | Mission Design | Physical Parameters | Discovery Circumstances | Close-Approach Data ]

[ show orbit diagram ]
Orbital Elements at Epoch 2459000.5 (2020-May-31.0) TDB
Reference: JPL 17 (heliocentric ecliptic J2000)
 Element Value Uncertainty (1-sigma)   Units 
e .19513790057804 4.0399e-08  
a 2.32904112706053 1.358e-08 au
q 1.874556931166026 9.6323e-08 au
i 9.414961689367464 5.4291e-06 deg
node 8.599198795743261 2.1336e-05 deg
peri 52.01164069410451 2.5334e-05 deg
M 139.2174654755006 1.2882e-05 deg
tp 2458498.440273289154
(2019-Jan-14.94027329)
4.4788e-05 TDB
period 1298.267433605242
3.55
1.1355e-05
3.109e-08
d
yr
n .2772926368493222 2.4253e-09 deg/d
Q 2.783525322955034 1.623e-08 au
  Orbit Determination Parameters
   # obs. used (total)      440  
   data-arc span      6618 days (18.12 yr)  
   first obs. used      2002-03-15  
   last obs. used      2020-04-27  
   planetary ephem.      DE431  
   SB-pert. ephem.      SB431-N16  
   condition code      0  
   norm. resid. RMS      .47132  
   source      ORB  
   producer      Otto Matic  
   solution date      2020-May-21 23:22:46  

Additional Information
 Earth MOID = .902194 au 
 Jupiter MOID = 2.6206 au 
 T_jup = 3.529 
[ show covariance matrix ]

Ephemeris | Orbit Diagram | Orbital Elements | Mission Design | Physical Parameters | Discovery Circumstances | Close-Approach Data ]

Physical Parameter Table
Parameter Symbol Value Units Sigma Reference Notes
absolute magnitude H 16.6   n/a MPO455590  

359024 (2008 UW370)          Discovered 2008-Oct-29 by Mt. Lemmon Survey at Mount Lemmon
Reference: 20130327/Numbers.arcLast Updated: 2013-03-29

[ show close-approach data ]
Alternate Designations
 2008 UW370 = 2002 EK149 
Ephemeris | Orbit Diagram | Orbital Elements | Mission Design | Physical Parameters | Discovery Circumstances | Close-Approach Data ]
ABOUT SSD CREDITS/AWARDS PRIVACY/COPYRIGHT GLOSSARY LINKS
FirstGov 2020-Jul-09 14:37 UT
(server date/time)  
NASA Home Page
Site Manager:   Ryan S. Park
Webmaster  Alan B. Chamberlin